Hourly Data Report for November 10, 2019

PILGER
SASKATCHEWAN
Current Station Operator: ECCC - MSC

52°25'00.000" N
105°09'00.000" W
552.00 m
4056121
71655
PUN

Download Data

Hourly Data (November 2019)
Hourly Data Report for November 10, 2019
TIME
LST
Temp Definition
°C
Dew Point Definition
°C
Rel Hum Definition
%
Precip. Amount Definition
mm

Wind Dir Definition
10's deg

Wind Spd Definition
km/h
Visibility Definition
km
Stn Press Definition
kPa
Hmdx Definition


Wind Chill Definition


Weather Definition


00:00 -13.2 -17.7 69 0.0 31 10   96.08   -19 LegendNANA
01:00 -13.0 -16.9 73 0.0 30 9   96.14   -18 LegendNANA
02:00 -13.2 -16.6 76 0.0 30 8   96.21   -18 LegendNANA
03:00 -13.3 -17.0 74 0.0 1 24   96.23   -23 LegendNANA
04:00 -13.9 -17.6 74 0.0 36 19   96.27   -23 LegendNANA
05:00 -14.7 -18.9 70 0.0 36 27   96.33   -25 LegendNANA
06:00 -15.3 -19.6 70 0.0 34 25   96.40   -26 LegendNANA
07:00 -14.8 -18.4 74 0.0 36 19   96.46   -24 LegendNANA
08:00 -14.8 -19.1 70 0.0 36 23   96.51   -25 LegendNANA
09:00 -14.8 -18.8 72 0.0 1 18   96.58   -23 LegendNANA
10:00 -14.8 -18.5 73 0.0 35 17   96.65   -23 LegendNANA
11:00 -14.9 -17.5 80 0.0 33 18   96.71   -24 LegendNANA
12:00 -16.5 -20.4 72 0.0 35 22   96.76   -27 LegendNANA
13:00 -17.0 -21.7 67 0.0 35 23   96.77   -27 LegendNANA
14:00 -16.9 -22.0 64 0.0 35 21   96.76   -27 LegendNANA
15:00 -16.8 -22.0 64 0.0 35 23   96.76   -27 LegendNANA
16:00 -17.4 -22.3 66 0.0 32 15   96.78   -26 LegendNANA
17:00 -16.8 -20.2 75 0.0 30 9   96.79   -23 LegendNANA
18:00 -16.8 -20.0 76 0.0 32 14   96.83   -25 LegendNANA
19:00 -18.0 -21.0 78 0.0 31 11   96.87   -25 LegendNANA
20:00 -17.4 -20.5 77 0.0 30 10   96.88   -24 LegendNANA
21:00 -18.9 -21.5 80 0.0 27 11   96.89   -26 LegendNANA
22:00 -20.9 -23.5 80 0.0 28 12   96.91   -29 LegendNANA
23:00 -21.2 -24.1 77 0.0 28 12   96.93   -29 LegendNANA

Notes on Data Quality.

Legend

  • E = Estimated
  • M = Missing
  • NA = Not Available*
  • [empty] = Indicates an unobserved value
Date modified: